Flag for Germany Weather past 2 weeks in Leipzig, Saxony, Germany

Now
73 °F

Passing clouds.


Feels Like: 77 °F
Forecast: 64 / 85 °F
Wind: 5 mph from Southeast

Location: Leipzig-Schkeuditz

Current Time: Aug 1, 2014 at 10:55:34 AM

Latest Report: Aug 1, 2014 at 10:20 AM


Visibility: N/A

Pressure: 29.95 "Hg

Humidity: 57%

Dew point: 57 °F

Location of LeipzigLocation

Historic Weather in Leipzig — Graph

°F

Leipzig temperature yesterday

Maximum temperature yesterday: 75 °F (at 3:20 PM)
Minimum temperature yesterday: 59 °F (at 5:20 AM)
Average temperature yesterday: 68 °F

Past Weeks' High & Low Weather Summary

 TemperatureHumidityPressure
High93 °F (Jul 20, 3:50 PM)100% (Jul 24, 8:50 PM)30.18 "Hg (Jul 24, 8:50 PM)
Low57 °F (Jul 24, 4:20 AM)22% (Jul 19, 6:50 PM)29.71 "Hg (Jul 29, 5:20 PM)
Average71 °F71%29.94 "Hg
* Reported Jul 17 9:20 AM — Aug 1 9:50 AM, Leipzig, Weather by CustomWeather, © 2014

Note: Actual official high and low records may vary slightly from our data, if they occured in-between our weather recording intervals... More about our weather records

Advertising

Leipzig weather history for previous 24 hours

 ConditionsComfort  
Time TempWeatherWind HumidityBarometerVisibility
9:50 AM
Aug 1
72 °FSunny.6 mph57%29.98 "Hg10 mi
9:20 AM70 °FSunny.7 mph60%29.98 "Hg10 mi
8:50 AM70 °FSunny.6 mph73%29.95 "Hg10 mi
8:20 AM66 °FSunny.6 mph78%29.98 "Hg10 mi
7:50 AM63 °FSunny.5 mph88%29.98 "Hg10 mi
7:20 AM61 °FSunny.8 mph88%29.98 "Hg10 mi
6:50 AM59 °FSunny.6 mph94%29.98 "Hg10 mi
6:20 AM59 °FClear.3 mph88%29.98 "Hg10 mi
5:50 AM59 °FClear.6 mph88%29.98 "Hg10 mi
5:20 AM59 °FClear.6 mph88%29.98 "Hg10 mi
4:50 AM61 °FClear.5 mph83%29.98 "Hg10 mi
4:20 AM61 °FClear.5 mph83%29.98 "Hg10 mi
3:50 AM61 °FClear.2 mph83%29.98 "Hg10 mi
3:20 AM61 °FClear.5 mph83%29.98 "Hg10 mi
2:50 AM61 °FClear.7 mph77%29.98 "Hg10 mi
2:20 AM63 °FClear.7 mph73%29.98 "Hg10 mi
1:50 AM63 °FClear.7 mph73%29.98 "Hg10 mi
1:20 AM63 °FClear.5 mph73%29.98 "Hg10 mi
12:50 AM64 °FClear.7 mph68%29.98 "Hg10 mi
12:20 AM64 °FClear.7 mph68%29.98 "Hg10 mi
11:50 PM
Jul 31
64 °FClear.8 mph73%29.98 "Hg10 mi
11:20 PM64 °FClear.6 mph73%29.98 "Hg10 mi
10:50 PM66 °FClear.6 mph68%29.98 "Hg10 mi
10:20 PM66 °FClear.6 mph68%29.98 "Hg10 mi
9:50 PM66 °FSunny.5 mph68%29.98 "Hg10 mi
9:20 PM70 °FSunny.6 mph57%29.98 "Hg10 mi
8:50 PM70 °FSunny.6 mph60%29.95 "Hg10 mi
8:20 PM72 °FSunny.6 mph57%29.95 "Hg10 mi
7:50 PM73 °FSunny.5 mph53%29.95 "Hg10 mi
7:20 PM73 °FSunny.6 mph44%29.95 "Hg10 mi
6:50 PM75 °FSunny.2 mph44%29.95 "Hg10 mi
6:20 PM75 °FSunny.5 mph41%29.95 "Hg10 mi
5:50 PM75 °FSunny.6 mph44%29.95 "Hg10 mi
5:20 PM75 °FSunny.6 mph44%29.98 "Hg10 mi
4:50 PM75 °FSunny.8 mph44%29.98 "Hg10 mi
4:20 PM75 °FBroken clouds.5 mph47%29.98 "HgN/A
3:50 PM75 °FBroken clouds.6 mph47%29.98 "HgN/A
3:20 PM75 °FBroken clouds.6 mph50%29.98 "HgN/A
2:50 PM73 °FBroken clouds.7 mph53%29.98 "HgN/A
2:20 PM73 °FBroken clouds.5 mph53%29.98 "HgN/A
1:50 PM73 °FBroken clouds.6 mph53%29.98 "HgN/A
1:20 PM72 °FPartly sunny.6 mph57%29.98 "HgN/A
12:50 PM70 °FPartly sunny.7 mph60%30.01 "HgN/A
12:20 PM72 °FPartly sunny.8 mph65%30.01 "HgN/A
11:50 AM70 °FPartly sunny.8 mph64%30.01 "HgN/A
11:20 AM70 °FPartly sunny.9 mph60%30.01 "HgN/A
10:50 AM68 °FPartly sunny.8 mph64%30.01 "HgN/A
10:20 AM68 °FPartly sunny.10 mph73%30.01 "HgN/A
Weather by CustomWeather, © 2014

See weather overviewHow to use our weather pages